Regional Weather Roundup
Issued by NWS

Home | Current Version | Previous Version | Text Only | Print | Product List | Glossary Off
Versions: 1 2 3 4 5 6 7 8 9 10 11 12 13 14 15 16 17 18 19 20 21 22 23 24 25 26 27 28 29 30 31 32 33 34 35 36 37 38 39 40 41 42 43 44 45 46 47 48 49 50

000
ASUS45 KBOU 061107
RWRCO

WEATHER ROUNDUP FOR COLORADO
NATIONAL WEATHER SERVICE DENVER/BOULDER CO
500 AM MDT WED MAY 06 2015

NOTE: "FAIR" INDICATES FEW OR NO CLOUDS BELOW 12000 FEET WITH NO
SIGNIFICANT WEATHER AND/OR OBSTRUCTIONS TO VISIBILITY.

COZ001>005-013-030-031-061200-
...NORTHWEST COLORADO...

CITY           SKY/WX    TMP DP  RH WIND       PRES   REMARKS
CRAIG          CLOUDY    49  45  86 W7        29.80S
HAYDEN         CLOUDY    46  43  87 W10       29.80S
MEEKER         LGT RAIN  46  44  93 CALM      29.82S FOG
MOUNT WERNER   NOT AVBL
STEAMBOAT SPGS CLOUDY    44  43  96 NE3       29.80S
WALDEN         CLOUDY    37  37 100 CALM      29.81S VSB 1/2
$$

COZ006>008-011-061200-
...WEST CENTRAL VALLEYS...

CITY           SKY/WX    TMP DP  RH WIND       PRES   REMARKS
GRAND JUNCTION LGT RAIN  51  51 100 CALM      29.80R
MONTROSE       CLOUDY    50  48  93 SE3       29.85R
EAGLE          CLOUDY    43  43 100 E7        29.86S
RIFLE          LGT RAIN  48  46  93 CALM      29.82S FOG
DELTA          CLOUDY    53  51  94 CALM      29.82S
NUCLA          LGT RAIN  50  45  81 CALM      29.90S
$$

COZ017>023-064>068-061200-
...SOUTHWEST COLORADO...

CITY           SKY/WX    TMP DP  RH WIND       PRES   REMARKS
DURANGO        CLOUDY    46  45  96 SW9       29.92R
CORTEZ         CLOUDY    49  46  90 S12       29.90S
PAGOSA SPRINGS RAIN      45  44  98 SW8       29.94S
TELLURIDE      NOT AVBL
WOLF CREEK PAS NOT AVBL
$$

COZ009-010-012-014-032>034-037-058>063-061200-
...CENTRAL COLORADO...

CITY           SKY/WX    TMP DP  RH WIND       PRES   REMARKS
ASPEN          LGT RAIN N/A N/A N/A CALM      29.87S
BUENA VISTA    NOT AVBL
COPPER MTN     CLOUDY    34  30  86 W14       29.96S WCI  24
BERTHOUD PASS  CLOUDY    28  19  69 NW23G35   29.94S WCI  14
COTTONWOOD PAS CLOUDY    41  34  75 NW8G18    29.88S
GUNNISON       MOCLDY    43  37  81 N6        29.90R
KREMMLING      LGT RAIN  41  34  75 W15       29.84S
LEADVILLE      LGT RAIN  35  34  96 N8        29.88S WCI  29
MONARCH PASS   CLOUDY    32  30  93 MISG      30.05F
SALIDA         CLOUDY    48  39  72 SW10G17   29.88S
SUNLIGHT       LGT SNOW  34  34 100 CALM      29.98S
WILKERSON PASS SNOW      32  32 100 W8G17     29.93S VSB 1/2 WCI  25
$$

COZ069>075-061200-
...SAN LUIS VALLEY/SANGRE DE CRISTO MOUNTAINS...

CITY           SKY/WX    TMP DP  RH WIND       PRES   REMARKS
ALAMOSA        FOG       39  38  96 W3        29.86S VSB 1/2
LA VETA PASS   DRIZZLE  N/A N/A N/A MISG      29.87S
SAGUACHE       CLOUDY    41  41 100 SE3       29.89R
$$

COZ035-036-038>040-061200-
...NORTHERN COLORADO FRONT RANGE...

CITY           SKY/WX    TMP DP  RH WIND       PRES   REMARKS
DENVER INTL AP LGT RAIN  49  47  93 W8        29.70S
DMNS CITY PARK   N/A     49  47  93 SW5       29.70F
AURORA         LGT RAIN  47  47 100 W6        29.72S
FRONT RANGE AP RAIN      50  50 100 W9        29.71S
ERIE MUNI ARPT DRIZZLE   49  47  94 SW3       29.69F
BOULDER MUN AP CLOUDY    48  46  93 S3        29.70S
CENTENNIAL     CLOUDY    48  46  93 SW3       29.72F
BROOMFIELD     CLOUDY    48  46  93 W5        29.72S
FORT COLLINS   CLOUDY    48  46  93 CALM      29.70F
LONGMONT       CLOUDY    50  48  92 CALM      29.71F
$$

COZ041-046-047-076>085-087-088-061200-
...PIKES PEAK/PALMER DIVIDE AND SOUTHERN FOOTHILLS...

CITY           SKY/WX    TMP DP  RH WIND       PRES   REMARKS
COLO. SPRINGS  CLOUDY    46  45  96 NE7       29.74S
A. F. ACADEMY  CLOUDY    43  43 100 N5        29.74S
ELLICOTT       CLOUDY   N/A N/A N/A NE6       29.73R
FALCON         DRIZZLE   44  44  99 CALM      29.77R
FORT CARSON    DRIZZLE   46  46 100 N3        29.71S
LIMON          CLOUDY    48  46  93 W5        29.72R
MONUMENT HILL  DRIZZLE   41  41 100 W5        29.75R
TRINIDAD       CLOUDY    46  44  93 SE3       29.73F
$$

COZ042>045-048>051-090-091-061200-
...NORTHEAST COLORADO...

CITY           SKY/WX    TMP DP  RH WIND       PRES   REMARKS
GREELEY ARPT     N/A    N/A N/A N/A MISG        N/A
AKRON          CLOUDY    51  51 100 S15       29.66R FOG
BURLINGTON     CLOUDY    50  49  96 SE13      29.71S FOG
WRAY           CLOUDY   N/A N/A N/A SE13      29.68F
STERLING       CLOUDY    54  52  94 SE12      29.63S
HOLYOKE        NOT AVBL
FORT MORGAN    DRIZZLE   51  49  95 NW9       29.65R
$$

COZ086-089-092>099-061200-
...SOUTHEAST COLORADO...

CITY           SKY/WX    TMP DP  RH WIND       PRES   REMARKS
PUEBLO         CLOUDY    50  49  96 CALM      29.69S
LA JUNTA       CLOUDY    51  50  96 S3        29.69S
LAMAR          LGT RAIN  51  50  96 SE9       29.67F
SPRINGFIELD      N/A     54  44  69 W16G30    29.68F
$$



USA.gov is the U.S. government's official web portal to all federal, state and local government web resources and services.